[[{"header":{"parameterUnit":"m.s-1","parameterCategory":1,"la1":30.2991,"la2":30.254,"lo1":-89.0895,"lo2":-89.0444,"dy":0.0017,"dx":0.0017,"nx":28,"ny":28,"refTime":"2025-03-22T09:00:00:Z","depth":0,"parameterNumber":2,"parameterNumberName":"U-component_of_WINDS"},"data":[0,0,0,0,0,0,0,0,0,0,0,0,0,0,0,0,0,0,0,0,0,0,0,0,0,0,0,0,0,0,0,0,0,0,0,0,0,0,0,0,0,0,0,0,0,0,0,0,0,0,0,0,0,0,0,0,0,0,-0.9246,-0.9246,0,-0.9244,-0.9244,-0.9243,-0.9249,-0.9249,-0.9249,-0.9249,-0.9246,-0.9245,-0.9245,0,0,0,0,0,0,0,0,0,0,0,0,0,-0.9255,-0.9254,-0.9246,-0.9246,-0.9246,-0.9244,-0.9244,-0.9243,-0.9249,-0.9249,-0.9249,-0.9249,-0.9246,-0.9246,-0.9245,0,0,0,0,0,0,0,0,0,0,0,0,0,-0.9251,-0.9254,-0.9246,-0.9248,-0.9248,-0.9244,-0.9244,-0.9243,-0.9249,-0.9249,-0.9249,-0.9249,-0.9246,-0.9246,-0.9245,-0.9238,0,0,-0.9244,-0.9244,0,0,0,0,0,0,0,0,-0.9252,-0.9251,-0.9248,-0.9248,-0.9248,-0.9247,-0.9245,-0.9242,-0.9248,-0.9248,-0.9249,-0.9249,-0.9246,-0.9245,-0.9244,-0.9238,-0.9237,-0.9244,-0.9244,-0.9244,-0.9244,0,0,0,0,0,0,0,-0.9252,-0.9251,-0.9245,-0.9248,-0.9248,-0.9249,-0.9249,-0.9245,-0.9246,-0.9248,-0.9249,-0.9249,-0.9246,-0.9245,-0.9244,-0.9237,-0.9244,-0.9244,-0.9243,-0.9243,-0.9224,-0.9224,0,0,0,0,0,0,-0.9252,-0.9251,-0.9245,-0.9245,-0.9251,-0.9249,-0.9249,-0.9247,-0.9246,-0.9246,-0.9248,-0.9249,-0.9245,-0.9245,-0.9244,-0.9235,-0.9244,-0.9243,-0.9243,-0.9224,-0.9224,-0.9224,0,0,0,0,0,0,-0.9252,-0.9251,-0.9245,-0.9248,-0.9248,-0.9248,-0.9246,-0.9247,-0.9246,-0.9246,-0.9246,-0.9247,-0.9245,-0.9245,-0.9239,-0.9235,-0.9243,-0.9243,-0.9225,-0.9224,-0.9224,-0.9217,0,0,0,0,0,0,-0.9252,-0.9251,-0.9249,-0.9248,-0.9247,-0.9241,-0.9246,-0.9247,-0.9245,-0.9246,-0.9244,-0.9244,-0.9246,-0.924,-0.9239,-0.9235,-0.9242,-0.9225,-0.9224,-0.9224,-0.9218,-0.9216,-0.9215,0,0,0,0,0,-0.9252,-0.9247,-0.9249,-0.9248,-0.9244,-0.924,-0.924,-0.9242,-0.9245,-0.9242,-0.9242,-0.9244,-0.9236,-0.9239,-0.9238,-0.9234,-0.9225,-0.9225,-0.9224,-0.9218,-0.9217,-0.9215,0,0,0,0,0,0,-0.9247,-0.9247,-0.9249,-0.9243,-0.9242,-0.9241,-0.9238,-0.924,-0.9238,-0.9238,-0.924,-0.924,-0.9234,-0.9233,-0.9237,-0.9226,-0.9231,-0.923,-0.9227,-0.9226,-0.9224,-0.9225,-0.9242,0,0,0,0,0,-0.9245,-0.9242,-0.9242,-0.9237,-0.9236,-0.9237,-0.9235,-0.9237,-0.9236,-0.9235,-0.9235,-0.9233,-0.923,-0.9228,-0.9225,-0.9218,-0.9217,-0.9214,-0.9213,-0.9212,-0.9211,-0.9207,-0.9205,-0.9221,-0.9221,-0.9221,0,0,-0.9241,-0.924,-0.9239,-0.9236,-0.9235,-0.9231,-0.9237,-0.9233,-0.923,-0.9234,-0.9229,-0.9229,-0.9227,-0.9221,-0.9218,-0.922,-0.9207,-0.9211,-0.9211,-0.921,-0.9206,-0.9204,-0.9203,-0.9221,-0.9221,-0.9221,0,0,-0.9232,-0.9231,-0.9227,-0.9226,-0.9224,-0.9225,-0.9224,-0.9223,-0.9223,-0.9218,-0.9221,-0.9218,-0.9212,-0.9211,-0.9209,-0.9199,-0.9201,-0.9198,-0.9192,-0.9188,-0.9187,-0.9186,-0.9181,-0.918,-0.9197,-0.9197,-0.9197,0,-0.9227,-0.9222,-0.9224,-0.922,-0.9218,-0.9222,-0.9217,-0.9216,-0.9214,-0.9213,-0.9215,-0.9208,-0.9207,-0.92,-0.9198,-0.9197,-0.9195,-0.9198,-0.9187,-0.9186,-0.9185,-0.9181,-0.9179,-0.9197,-0.9197,-0.9197,-0.9197,0,-0.9216,-0.9212,-0.9209,-0.9206,-0.9205,-0.92,-0.9201,-0.9199,-0.92,-0.9201,-0.9195,-0.9194,-0.9191,-0.9189,-0.9191,-0.9182,-0.9184,-0.9187,-0.9191,-0.9183,-0.9179,-0.9177,-0.9196,-0.9197,-0.9197,-0.9197,0,0,-0.9203,-0.9202,-0.92,-0.9199,-0.9198,-0.9195,-0.9191,-0.9188,-0.9185,-0.9184,-0.918,-0.9175,-0.9177,-0.9176,-0.9177,-0.9173,-0.9165,-0.9176,-0.9176,-0.9174,-0.9155,-0.9152,-0.9151,-0.9166,-0.9166,-0.9166,-0.9155,0,-0.9194,-0.9186,-0.9188,-0.918,-0.9177,-0.918,-0.9176,-0.9174,-0.9174,-0.9171,-0.9171,-0.9168,-0.9171,-0.917,-0.9167,-0.9166,-0.9161,-0.9167,-0.9162,-0.9162,-0.9162,-0.9149,-0.9146,-0.9136,-0.9153,-0.9153,-0.9153,0,-0.9182,-0.9179,-0.9172,-0.917,-0.9169,-0.9165,-0.9163,-0.916,-0.9158,-0.9158,-0.9156,-0.9158,-0.9153,-0.9158,-0.9151,-0.9155,-0.9153,-0.9152,-0.9152,-0.9151,-0.9157,-0.9147,-0.9133,-0.9131,-0.9151,-0.9151,-0.9151,0,-0.9173,-0.9168,-0.9162,-0.9161,-0.916,-0.9157,-0.9156,-0.9155,-0.9153,-0.915,-0.9149,-0.9145,-0.9144,-0.9141,-0.9142,-0.9145,-0.9134,-0.9139,-0.9134,-0.9134,-0.9131,-0.9131,-0.9116,-0.913,-0.913,-0.913,-0.913,0,-0.9162,-0.9157,-0.9158,-0.9155,-0.9149,-0.9151,-0.9145,-0.9144,-0.9143,-0.9139,-0.9142,-0.9138,-0.9139,-0.9136,-0.9136,-0.913,-0.9129,-0.9129,-0.9129,-0.9128,-0.9128,-0.9127,-0.9127,-0.913,-0.913,-0.913,-0.913,0,-0.9151,-0.9152,-0.9146,-0.9145,-0.9144,-0.914,-0.9139,-0.9136,-0.9136,-0.9131,-0.913,-0.913,-0.9126,-0.9126,-0.9121,-0.9121,-0.9114,-0.9115,-0.9114,-0.9114,-0.9109,-0.9109,-0.9091,-0.9089,-0.9105,-0.9105,-0.9105,0,-0.9144,-0.914,-0.9138,-0.9136,-0.9135,-0.9132,-0.9129,-0.9131,-0.9128,-0.9126,-0.9122,-0.9118,-0.9115,-0.9108,-0.9107,-0.9104,-0.9104,-0.9099,-0.9104,-0.9103,-0.9104,-0.9104,-0.9103,-0.9097,-0.9097,-0.9097,-0.9097,0,-0.9131,-0.9131,-0.9128,-0.9125,-0.9123,-0.912,-0.9118,-0.9116,-0.9117,-0.9114,-0.911,-0.9107,-0.9102,-0.9098,-0.9094,-0.9093,-0.9095,-0.9095,-0.9094,-0.9093,-0.9093,-0.9092,-0.9111,-0.9096,-0.9096,-0.9096,-0.9096,-0.9096,-0.9121,-0.9118,-0.9116,-0.9113,-0.9111,-0.9109,-0.9105,-0.9105,-0.9101,-0.9098,-0.9098,-0.9093,-0.9091,-0.9086,-0.9085,-0.9081,-0.9083,-0.9081,-0.908,-0.9079,-0.9078,-0.9094,-0.908,-0.908,-0.908,-0.908,-0.908,0,-0.9109,-0.9107,-0.9104,-0.9101,-0.9098,-0.91,-0.9098,-0.9095,-0.909,-0.9088,-0.9085,-0.908,-0.9075,-0.9074,-0.907,-0.9067,-0.9068,-0.9066,-0.9066,-0.9065,-0.9077,-0.9079,-0.9065,-0.9065,-0.9065,-0.9065,-0.9065,-0.9065,-0.9101,-0.9095,-0.9096,-0.9089,-0.9088,-0.9083,-0.9081,-0.9079,-0.9077,-0.9071,-0.9068,-0.9067,-0.9065,-0.9061,-0.9057,-0.9056,-0.9054,-0.9052,-0.9052,-0.9063,-0.9065,-0.9066,-0.9067,-0.9052,-0.9052,-0.9041,-0.9041,-0.9041]},{"header":{"parameterUnit":"m.s-1","parameterCategory":1,"la1":30.2991,"la2":30.254,"lo1":-89.0895,"lo2":-89.0444,"dy":0.0017,"dx":0.0017,"nx":28,"ny":28,"refTime":"2025-03-22T09:00:00:Z","depth":0,"parameterNumber":3,"parameterNumberName":"V-component_of_WINDS"},"data":[0,0,0,0,0,0,0,0,0,0,0,0,0,0,0,0,0,0,0,0,0,0,0,0,0,0,0,0,0,0,0,0,0,0,0,0,0,0,0,0,0,0,0,0,0,0,0,0,0,0,0,0,0,0,0,0,0,0,4.676,4.676,0,4.6752,4.6752,4.6752,4.6711,4.671,4.6709,4.6708,4.6698,4.6698,4.6699,0,0,0,0,0,0,0,0,0,0,0,0,0,4.674,4.674,4.676,4.676,4.676,4.6752,4.6752,4.6752,4.6711,4.671,4.6709,4.6708,4.6697,4.6698,4.6699,0,0,0,0,0,0,0,0,0,0,0,0,0,4.6742,4.674,4.676,4.6739,4.6737,4.6752,4.6752,4.6752,4.6711,4.671,4.6708,4.6707,4.6697,4.6698,4.6699,4.6734,0,0,4.6702,4.6702,0,0,0,0,0,0,0,0,4.6742,4.6742,4.6742,4.674,4.6738,4.6731,4.6741,4.6746,4.6712,4.6721,4.6708,4.6706,4.671,4.671,4.6711,4.6733,4.6733,4.6702,4.6702,4.6703,4.6703,0,0,0,0,0,0,0,4.6742,4.6743,4.6757,4.6742,4.674,4.6729,4.6728,4.6742,4.6723,4.672,4.6717,4.6717,4.6708,4.671,4.6711,4.6733,4.6702,4.6703,4.6703,4.6704,4.6786,4.6787,0,0,0,0,0,0,4.6745,4.6743,4.6757,4.6757,4.6736,4.6731,4.6729,4.6735,4.6723,4.672,4.6718,4.6715,4.6709,4.671,4.671,4.6752,4.6703,4.6704,4.6704,4.6784,4.6786,4.6788,0,0,0,0,0,0,4.6744,4.6746,4.6757,4.6749,4.675,4.6733,4.6739,4.6735,4.6737,4.6722,4.6718,4.6723,4.6708,4.6709,4.6729,4.6751,4.6704,4.6705,4.6782,4.6785,4.6787,4.6834,0,0,0,0,0,0,4.6744,4.6746,4.6759,4.675,4.675,4.6777,4.674,4.6736,4.6739,4.6735,4.6726,4.6723,4.6707,4.6728,4.673,4.6751,4.6706,4.678,4.6783,4.6786,4.6831,4.6838,4.6845,0,0,0,0,0,4.6743,4.6772,4.676,4.6762,4.6766,4.6778,4.6778,4.676,4.6741,4.6754,4.6745,4.6723,4.6748,4.673,4.6732,4.6754,4.6778,4.6782,4.6786,4.6828,4.6837,4.6844,0,0,0,0,0,0,4.6783,4.677,4.6757,4.6783,4.6782,4.6771,4.6787,4.677,4.6773,4.6769,4.6746,4.6744,4.6768,4.6763,4.6743,4.6789,4.676,4.6764,4.6791,4.68,4.6806,4.6807,4.6707,0,0,0,0,0,4.6795,4.6806,4.6794,4.6819,4.6819,4.6803,4.6807,4.6794,4.6792,4.6791,4.6782,4.678,4.6788,4.6793,4.6799,4.683,4.6828,4.6846,4.6853,4.6859,4.6863,4.6881,4.6889,4.68,4.68,4.6799,0,0,4.6819,4.6814,4.6822,4.6827,4.6824,4.6837,4.6803,4.6816,4.6826,4.6792,4.6812,4.6806,4.6802,4.6829,4.684,4.6825,4.6888,4.6863,4.6868,4.6869,4.6886,4.6894,4.6902,4.6802,4.6802,4.6801,0,0,4.6871,4.6867,4.6888,4.6888,4.6885,4.6875,4.688,4.6872,4.6867,4.6887,4.6863,4.6873,4.6886,4.6885,4.6887,4.6941,4.6922,4.6944,4.6979,4.6997,4.7004,4.7011,4.7032,4.7039,4.6948,4.6948,4.6948,0,4.6901,4.6919,4.6901,4.6918,4.6921,4.6893,4.6915,4.6915,4.6914,4.6917,4.6901,4.6918,4.6914,4.6941,4.6954,4.6956,4.6962,4.6944,4.7005,4.7011,4.7016,4.7036,4.7044,4.695,4.695,4.695,4.695,0,4.6958,4.6971,4.6988,4.6991,4.6996,4.7015,4.7,4.7007,4.6994,4.6986,4.7007,4.7001,4.7006,4.7012,4.6998,4.7038,4.7029,4.7009,4.698,4.7028,4.7047,4.7054,4.6954,4.6953,4.6953,4.6952,0,0,4.7032,4.7026,4.7033,4.7035,4.7032,4.7041,4.706,4.7066,4.7074,4.7075,4.7091,4.7104,4.7086,4.7088,4.7074,4.709,4.7136,4.7069,4.7068,4.7083,4.7181,4.7197,4.7206,4.7124,4.7125,4.7126,4.7182,0,4.7082,4.7114,4.71,4.7133,4.7147,4.7122,4.7138,4.7138,4.7131,4.7141,4.7133,4.7144,4.7119,4.7121,4.7135,4.7127,4.7156,4.7123,4.7138,4.7139,4.7141,4.7215,4.7231,4.7284,4.7189,4.719,4.7191,0,4.7145,4.7151,4.7187,4.7184,4.7189,4.7203,4.721,4.722,4.722,4.7214,4.7217,4.7201,4.7219,4.7191,4.7216,4.7194,4.72,4.7197,4.7199,4.72,4.7168,4.7219,4.73,4.7309,4.7202,4.7201,4.72,0,4.7198,4.7215,4.7239,4.7241,4.7237,4.7249,4.7248,4.7247,4.7253,4.7258,4.7262,4.7269,4.7273,4.7279,4.7265,4.7245,4.7294,4.7263,4.729,4.729,4.7301,4.7301,4.7386,4.7303,4.7303,4.7303,4.7303,0,4.7256,4.7279,4.7263,4.7278,4.7304,4.7287,4.7313,4.7309,4.7309,4.7322,4.7301,4.7314,4.7295,4.7307,4.7296,4.732,4.7322,4.7318,4.7315,4.732,4.7321,4.7324,4.732,4.7305,4.7305,4.7304,4.7304,0,4.7319,4.7309,4.7334,4.733,4.733,4.7349,4.7345,4.7359,4.7352,4.737,4.7373,4.7362,4.7375,4.7362,4.7373,4.7367,4.74,4.739,4.74,4.7398,4.7426,4.7424,4.7516,4.7528,4.7437,4.7438,4.7439,0,4.7357,4.7375,4.7374,4.7382,4.7383,4.7397,4.7404,4.7389,4.7397,4.74,4.7414,4.7425,4.7434,4.7456,4.7448,4.7458,4.745,4.7481,4.7451,4.7457,4.7452,4.7452,4.7454,4.7488,4.7489,4.749,4.749,0,4.7427,4.7422,4.7433,4.7443,4.7453,4.7459,4.7464,4.7473,4.7457,4.7467,4.7481,4.7488,4.7502,4.7514,4.7522,4.752,4.7503,4.75,4.7507,4.7513,4.7519,4.7518,4.7418,4.7498,4.7497,4.7497,4.7496,4.7496,4.7479,4.7495,4.7498,4.7511,4.7514,4.752,4.7534,4.753,4.7542,4.7552,4.7543,4.756,4.7562,4.7571,4.7572,4.7585,4.7572,4.7582,4.7584,4.7587,4.7592,4.7516,4.7586,4.7586,4.7586,4.7586,4.7586,0,4.7549,4.755,4.7563,4.7573,4.7584,4.7568,4.7574,4.7584,4.7601,4.7604,4.7614,4.7631,4.7644,4.7638,4.7649,4.7662,4.7654,4.7665,4.7664,4.7665,4.7603,4.7596,4.7671,4.7671,4.7671,4.7671,4.7671,4.7671,4.7587,4.7613,4.7609,4.7637,4.7638,4.7656,4.7661,4.7667,4.767,4.7691,4.7702,4.7699,4.7699,4.7711,4.7722,4.772,4.7726,4.774,4.7735,4.7677,4.7669,4.7661,4.7655,4.7741,4.7741,4.7796,4.7797,4.7797]}]]